Zurück zum Katalog

STARLINK-34715

AktivKommunikationVLEO
NORAD 64931·PAYLOAD·🇺🇸 United States

Gestartet Jul 26, 2025 von Cape Canaveral Space Force Station

Loading…

Nächste Überflüge (nächste 24 Stunden)

TLE

AktuellSource: CelesTrak SupGP

Epoche: Sep 14, 2026, 21:02 UTC

1 64931C 25157AD  26257.87687500  .00011092  00000+0  32754-3 0  2579
2 64931  53.1572 183.9966 0001393 110.9498 128.0630 15.34401447    12

Verfolge STARLINK-34715 in Echtzeit mit AllMySat

Download on the App Store